カタログに戻る

STARLINK-36768

運用中通信SSO
NORAD 67803·PAYLOAD·🇺🇸 United States

打ち上げ Feb 15, 2026 から Vandenberg Space Force Base

Loading…

次のパス (今後24時間)

TLE

最新Source: CelesTrak SupGP

元期: Sep 15, 2026, 04:18 UTC

1 67803C 26032G   26258.17965278 -.00056094  00000+0 -17414-2 0  2587
2 67803  97.2851  84.6065 0001543  90.4459   4.1968 15.33464939    17

AllMySatでSTARLINK-36768をリアルタイム追跡

Download on the App Store